Weather History for Andover, NJ

Change the Weather History Date:

Thursday, February 7, 2013

  Actual Average (KFWN) Record (KFWN)
Temperature  
Mean Temperature 23 °F -  
Max Temperature 30 °F 32 °F 53 °F (2005)
Min Temperature 16 °F 11 °F -14 °F (1966)
Degree Days  
Heating Degree Days 42    
Moisture  
Dew Point 11 °F    
Average Humidity 59    
Maximum Humidity 77    
Minimum Humidity 43    
Precipitation  
Precipitation 0.00 in - - ()
Sea Level Pressure  
Sea Level Pressure 30.44 in    
Wind  
Wind Speed 1 mph (NNE)    
Max Wind Speed 5 mph    
Max Gust Speed -    
Averages and records for this station are not official NWS values.
T = Trace of Precipitation, MM = Missing Value Source: NWS Daily Summary

Daily Weather History Graph

Daily Weather History Graph

Search for Another Location

Airport:

Trip Planner

Search our weather history database for the weather conditions in past years. The results will help you decide how hot, cold, wet, or windy it might be!

Date:

Astronomy

Feb. 07, 2013 Rise Set
Actual Time 7:02 AM EST 5:23 PM EST
Civil Twilight 6:34 AM EST 5:52 PM EST
Nautical Twilight 6:01 AM EST 6:25 PM EST
Astronomical Twilight 5:29 AM EST 6:57 PM EST
Moon 4:41 AM EST (2/7) 2:44 PM EST (2/7)
Length of Visible Light 11h 18m
Length of Day
10h 20m
Waning Crescent, 9% of the Moon is Illuminated
Feb 7
Waning Crescent
Feb 10
New
Feb 17
First Quarter
Feb 25
Full
Mar 4
Last Quarter

Hourly Weather History & Observations

Time (EST) Temp. Windchill Dew Point Humidity Pressure Visibility Wind Dir Wind Speed Gust Speed Precip Events Conditions
12:54 AM 21.0 °F 14.6 °F 8.1 °F 57% 30.38 in - North 4.6 mph - N/A   Unknown
1:54 AM 19.9 °F - 10.0 °F 65% 30.40 in - Calm Calm - N/A   Unknown
2:54 AM 16.0 °F - 9.0 °F 74% 30.42 in - Calm Calm - N/A   Unknown
3:54 AM 16.0 °F - 10.0 °F 77% 30.42 in - Calm Calm - N/A   Unknown
4:54 AM 16.0 °F - 10.0 °F 77% 30.45 in - Calm Calm - N/A   Unknown
5:54 AM 16.0 °F - 9.0 °F 74% 30.45 in - Calm Calm - N/A   Unknown
6:54 AM 16.0 °F - 10.0 °F 77% 30.48 in - Calm Calm - N/A   Unknown
7:54 AM 18.0 °F - 10.0 °F 71% 30.51 in - Calm Calm - N/A   Unknown
8:54 AM 21.0 °F - 9.0 °F 60% 30.51 in - Calm Calm - N/A   Unknown
9:54 AM 23.0 °F - 10.0 °F 58% 30.53 in - Calm Calm - N/A   Unknown
10:54 AM 25.0 °F - 10.0 °F 53% 30.51 in - Calm Calm - N/A   Unknown
11:54 AM 27.0 °F - 10.9 °F 51% 30.49 in - Calm Calm - N/A   Unknown
12:54 PM 28.9 °F 25.2 °F 12.9 °F 51% 30.47 in - North 3.5 mph - N/A   Unknown
1:54 PM 30.0 °F 26.5 °F 14.0 °F 51% 30.45 in - North 3.5 mph - N/A   Unknown
2:54 PM 30.0 °F 25.2 °F 10.0 °F 43% 30.44 in - Variable 4.6 mph - N/A   Unknown
3:54 PM 30.0 °F 25.2 °F 10.0 °F 43% 30.43 in - SE 4.6 mph - N/A   Unknown
4:54 PM 30.0 °F - 10.0 °F 43% 30.42 in - Calm Calm - N/A   Unknown
5:54 PM 28.9 °F - 9.0 °F 43% 30.42 in - Calm Calm - N/A   Unknown
6:54 PM 26.1 °F - 12.0 °F 55% 30.44 in - Calm Calm - N/A   Unknown
7:54 PM 25.0 °F - 14.0 °F 63% 30.43 in - Calm Calm - N/A   Unknown
8:54 PM 27.0 °F - 10.0 °F 49% 30.42 in - Calm Calm - N/A   Unknown
9:54 PM 28.0 °F - 10.9 °F 49% 30.40 in - Calm Calm - N/A   Unknown
10:54 PM 28.0 °F - 15.1 °F 58% 30.38 in - Calm Calm - N/A   Unknown
11:54 PM 28.0 °F - 18.0 °F 66% 30.34 in - Calm Calm - N/A   Unknown